BAW009 YMML-WSSS

Flight info

Callsign BAW009
Flight time N/A
Altitude 48000
Route KEPPA Q168 WR T29 CIN A576 ATMAP M635 SURGA T23 UGEBO UGEBO1A
Aircraft CONC/H-HSDFIRWXC/LB1D1

Departure

Time 2026-05-05 11:24
Airport Melbourne Airport (YMML)

Arrival

Time N/A
Airport Singapore Changi Airport (WSSS)
Time Latitude Longitude Altitude Speed Heading
2026-05-05 10:45 -37.67337 144.84792 393 ft 0 kts 22°
2026-05-05 11:03 -37.67339 144.84791 393 ft 3 kts 22°
2026-05-05 11:04 -37.67356 144.84782 393 ft 3 kts 22°
2026-05-05 11:04 -37.67374 144.84773 392 ft 3 kts 22°
2026-05-05 11:04 -37.67394 144.84763 392 ft 4 kts 22°
2026-05-05 11:04 -37.67415 144.84752 390 ft 2 kts 22°
2026-05-05 11:05 -37.67431 144.84743 390 ft 2 kts 22°
2026-05-05 11:05 -37.67447 144.84735 389 ft 2 kts 22°
2026-05-05 11:05 -37.67457 144.84730 389 ft 0 kts 22°
2026-05-05 11:08 -37.67455 144.84730 389 ft 0 kts 16°
2026-05-05 11:08 -37.67446 144.84722 389 ft 2 kts 336°
2026-05-05 11:09 -37.67442 144.84705 389 ft 1 kts 277°
2026-05-05 11:09 -37.67446 144.84633 387 ft 16 kts 264°
2026-05-05 11:09 -37.67457 144.84534 386 ft 13 kts 261°
2026-05-05 11:09 -37.67474 144.84411 383 ft 16 kts 259°
2026-05-05 11:10 -37.67483 144.84320 383 ft 4 kts 262°
2026-05-05 11:10 -37.67483 144.84309 383 ft 2 kts 264°
2026-05-05 11:10 -37.67491 144.84250 382 ft 12 kts 261°
2026-05-05 11:10 -37.67480 144.84140 379 ft 13 kts 300°
2026-05-05 11:11 -37.67401 144.84100 380 ft 14 kts 349°
2026-05-05 11:11 -37.67334 144.84087 380 ft 11 kts 352°
2026-05-05 11:11 -37.67274 144.84076 382 ft 6 kts 352°
2026-05-05 11:11 -37.67230 144.84068 386 ft 5 kts 351°
2026-05-05 11:12 -37.67172 144.84056 387 ft 12 kts 349°
2026-05-05 11:12 -37.67113 144.84061 387 ft 7 kts 16°
2026-05-05 11:12 -37.67086 144.84107 388 ft 7 kts 71°
2026-05-05 11:12 -37.67073 144.84182 389 ft 10 kts 76°
2026-05-05 11:13 -37.67053 144.84216 392 ft 3 kts 49°
2026-05-05 11:13 -37.67032 144.84227 393 ft 5 kts 20°
2026-05-05 11:13 -37.66989 144.84230 393 ft 6 kts 358°
2026-05-05 11:13 -37.66916 144.84224 393 ft 5 kts 349°
2026-05-05 11:14 -37.66893 144.84217 392 ft 6 kts 346°
2026-05-05 11:14 -37.66863 144.84209 396 ft 4 kts 349°
2026-05-05 11:14 -37.66812 144.84198 395 ft 7 kts 350°
2026-05-05 11:14 -37.66755 144.84189 393 ft 8 kts 353°
2026-05-05 11:15 -37.66724 144.84202 401 ft 3 kts 37°
2026-05-05 11:15 -37.66702 144.84237 397 ft 9 kts 51°
2026-05-05 11:15 -37.66686 144.84300 402 ft 9 kts 79°
2026-05-05 11:15 -37.66680 144.84341 403 ft 0 kts 81°
2026-05-05 11:16 -37.66680 144.84349 403 ft 5 kts 81°
2026-05-05 11:17 -37.66667 144.84367 400 ft 1 kts 33°
2026-05-05 11:17 -37.66665 144.84369 401 ft 0 kts 34°
2026-05-05 11:18 -37.66666 144.84378 402 ft 2 kts 67°
2026-05-05 11:18 -37.66664 144.84453 403 ft 12 kts 91°
2026-05-05 11:18 -37.66658 144.84574 406 ft 9 kts 82°
2026-05-05 11:19 -37.66650 144.84642 406 ft 17 kts 82°
2026-05-05 11:19 -37.66639 144.84719 408 ft 7 kts 76°
2026-05-05 11:19 -37.66614 144.84775 406 ft 2 kts 42°
2026-05-05 11:19 -37.66598 144.84787 408 ft 2 kts 28°
2026-05-05 11:20 -37.66583 144.84794 411 ft 0 kts 16°
2026-05-05 11:20 -37.66557 144.84797 412 ft 10 kts
2026-05-05 11:20 -37.66482 144.84780 414 ft 8 kts 351°
2026-05-05 11:20 -37.66412 144.84779 416 ft 9 kts
2026-05-05 11:21 -37.66355 144.84785 418 ft 7 kts
2026-05-05 11:21 -37.66351 144.84786 413 ft 0 kts
2026-05-05 11:21 -37.66347 144.84786 415 ft 2 kts
2026-05-05 11:22 -37.66309 144.84788 419 ft 7 kts
2026-05-05 11:22 -37.66272 144.84786 416 ft 5 kts 353°
2026-05-05 11:22 -37.66236 144.84766 417 ft 4 kts 324°
2026-05-05 11:22 -37.66222 144.84727 416 ft 0 kts 275°
2026-05-05 11:23 -37.66221 144.84723 415 ft 8 kts 275°
2026-05-05 11:23 -37.66194 144.84264 417 ft 97 kts 274°
2026-05-05 11:23 -37.66120 144.83036 415 ft 182 kts 274°
2026-05-05 11:23 -37.66013 144.81177 935 ft 224 kts 275°
2026-05-05 11:24 -37.65876 144.79131 2116 ft 249 kts 275°
2026-05-05 11:24 -37.65716 144.76732 2501 ft 298 kts 274°
2026-05-05 11:24 -37.65539 144.74006 3316 ft 324 kts 274°
2026-05-05 11:24 -37.65339 144.71032 3702 ft 358 kts 276°
2026-05-05 11:25 -37.64599 144.67926 4245 ft 377 kts 299°
2026-05-05 11:25 -37.62989 144.65238 4999 ft 399 kts 315°
2026-05-05 11:25 -37.60890 144.62831 5752 ft 434 kts 319°
2026-05-05 11:25 -37.58415 144.60294 6566 ft 483 kts 323°
2026-05-05 11:26 -37.55480 144.57805 7339 ft 534 kts 326°
2026-05-05 11:26 -37.52210 144.55167 8119 ft 581 kts 327°
2026-05-05 11:26 -37.48680 144.52349 8911 ft 620 kts 326°
2026-05-05 11:26 -37.44983 144.49390 9713 ft 628 kts 326°
2026-05-05 11:27 -37.41234 144.46389 10489 ft 648 kts 326°
2026-05-05 11:27 -37.37378 144.43295 11210 ft 668 kts 327°
2026-05-05 11:27 -37.33391 144.40130 11931 ft 684 kts 327°
2026-05-05 11:27 -37.29339 144.36874 12675 ft 695 kts 326°
2026-05-05 11:28 -37.25234 144.33596 13444 ft 702 kts 327°